STARLINK-31880, 59661

Orbit data source: Space-Track

STARLINK-31880, 59661 is a payload satellite owned by SpaceX/Seattle (US) in LEO that was launched on Mon, 06 May 2024 UTC via an FALCON 9 launch vehicle from the Air Force Eastern Test Range (AFETR). Payload-class satellites include a variety of spacecraft equipped with specific instruments for various scientific and technological missions. These include communications satellites like Starlink; space stations such as the ISS; scientific satellites like the Hubble; Earth observation satellites from companies like Planet Labs, Umbra, and HawkEye 360; GPS; miniature CubeSats for education and research; and military/defense satellites.

Loading next visibility...
Identifier
59661, 2024-084H
Orbit
LEO
Country
Flag of USUS
Related business
Manufacturer
SpaceX/Seattle
Mission
Operational spacecraft
Bus & Motor
STARLINK V2M, Unknown motor
Mass
730 kg wet, ~700 kg dry
Launch date (UTC)
2024-05-06 (1 year ago)
Launch vehicle
FALCON 9
Launch site
Air Force Eastern Test Range (AFETR)
Object type
Payload
Rocket body
Debris
Shape & HBR
Unknown
Radar Cross Section
Large (>1 m²)

Expand to show TLE details & history
Last TLE update: 10 hours ago

TLE from 10 hours ago
0 STARLINK-31880
1 59661U 24084H   25242.16493538  .00000209  00000-0  17096-4 0  9997
2 59661  43.0019  39.8222 0000322 301.7290  58.3530 15.27577456 75129
Epoch: 2025-08-30T03:57Z
TLE epoch observation values (Epoch: 2025-08-30T03:57:30.416Z)
Latitude
-0.00005°
Longitude
1.84226°
Altitude
482.716 km
Speed
7.626 km/s
True Right ascension
02h 39m 17s
True Declination
0° 00' 00"
Sunlit
Object was in full shadow at epoch
Visualization orbit readout
Latitude
Unknown
Longitude
Unknown
Altitude
Unknown
Speed
Unknown
Apparent Right ascension
Unknown
Apparent Declination
Unknown
Sunlit
N/A
Visualization observer readout
Local Sidereal Time
05:20:56
Azimuth
Unknown
Elevation
Unknown
Doppler factor
Unknown
Orbital elements
Apogee altitude
485.223 km
Perigee altitude
484.781 km
Semi-major axis
6,863.139 km
Eccentricity
0.00003
Inclination
43.0019°
RAAN
39.8222°
Arg. of periapsis
301.729°
True anomaly
58.35614°
Mean anomaly
58.353°
Eccentric anomaly
58.35457°
Mean motion
3.81732 °/min
Orbital period
94.31 mins
BSTAR
0.000017096
Loading maneuver chart data...
Computing Atmospheric mass density...
Loading historical data...
Loading historical data...
Loading historical data...
Loading historical data...
Loading historical data...
Loading historical data...
Loading historical data...

Documentation

Showing up to 5 results
|